This is the latest recevied weather packets stored in our database for station/object IZ3VCM. If no packets are shown the sender has not sent any weather packets the latest 10 day(s).
| Time | Temp. | Humidity | Pressure | Rain* | Wind** | Luminosity | Snow |
|---|---|---|---|---|---|---|---|
| 1777823103 | 30° C | 37% | 1015.7 hPa | 0 mm | - | - | - |
| 1777822206 | 30.56° C | 38% | 1016 hPa | 0 mm | - | - | - |
| 1777821303 | 30° C | 38% | 1016.1 hPa | 0 mm | - | - | - |
| 1777820405 | 29.44° C | 35% | 1016.1 hPa | 0 mm | - | - | - |
| 1777819504 | 29.44° C | 35% | 1016.3 hPa | 0 mm | - | - | - |
| 1777817703 | 28.89° C | 36% | 1016.6 hPa | 0 mm | - | - | - |
| 1777816805 | 29.44° C | 36% | 1016.7 hPa | 0 mm | - | - | - |
| 1777815903 | 28.33° C | 38% | 1016.8 hPa | 0 mm | - | - | - |
| 1777815006 | 28.89° C | 39% | 1017 hPa | 0 mm | - | - | - |
| 1777814103 | 28.33° C | 40% | 1017.1 hPa | 0 mm | - | - | - |
| 1777813205 | 28.33° C | 36% | 1017.2 hPa | 0 mm | - | - | - |
| 1777812304 | 27.78° C | 36% | 1017.3 hPa | 0 mm | - | - | - |
| 1777811405 | 28.33° C | 38% | 1017.4 hPa | 0 mm | - | - | - |
| 1777810503 | 28.33° C | 37% | 1017.7 hPa | 0 mm | - | - | - |
| 1777809606 | 28.33° C | 34% | 1017.8 hPa | 0 mm | - | - | - |
| 1777808708 | 28.33° C | 38% | 1017.9 hPa | 0 mm | - | - | - |
| 1777807806 | 28.33° C | 37% | 1017.8 hPa | 0 mm | - | - | - |
| 1777806903 | 27.78° C | 35% | 1017.7 hPa | 0 mm | - | - | - |
| 1777806006 | 27.78° C | 38% | 1017.8 hPa | 0 mm | - | - | - |
| 1777805103 | 27.78° C | 38% | 1018.1 hPa | 0 mm | - | - | - |
| 1777804205 | 26.67° C | 37% | 1018.3 hPa | 0 mm | - | - | - |
| 1777803303 | 27.78° C | 36% | 1018.4 hPa | 0 mm | - | - | - |
| 1777802405 | 27.22° C | 35% | 1018.6 hPa | 0 mm | - | - | - |
| 1777801503 | 26.67° C | 40% | 1018.8 hPa | 0 mm | - | - | - |
| 1777800605 | 26.67° C | 40% | 1018.7 hPa | 0 mm | - | - | - |
* Rain latest hour (hover to see other rain measurements)
** Current wind speed in m/s (hover to see current wind gust speed)